map of ARH home
Great Circle Mapper logo
ARH - Airport
Location
City:  Arkhangelsk, Russian Federation (Russia)
Name:Talagi
ICAO / IATA:ULAA / ARH

Details
Type:Airport (Aerodrome, Airfield)
Use:Public/Civil
Latitude:6436'01"N (64.600281)
Longitude:4043'00"E (40.716667)
Datum:WGS 1984
Elevation:62 ft (19 m)
Runways:1
Longest:8202 × 144 ft (2500 × 44 m), paved

Time
Time Zone:UTC+3 (DST+4)

Weather
METAR:ULAA 230630Z 33008G15MPS 280V010 9999 SCT033 01/M08 Q1015 NOSIG RMK QFE760/1013 SC070
TAF:ULAA 230500Z 2306/2406 30007G13MPS 9999 SCT010CB BKN100 530003
TEMPO 2306/2309 33010G17MPS 0700 +SHSN BKN005 BKN010CB 650050
TEMPO 2309/2315 34010G15MPS 2000 SHSN BKN007 BKN010CB 650070

Related Locations
Nearby:
Farthest:NZWD: 11008 mi / 17716 km
McMurdo Station [Williams Field], Ross Island, AQ

Find:

   beyond  
but within

Other Information
Maps:
NOTAMs:
Links:
Sources:

  
flag of Russian Federation (Russia)   

Sectional Chart

Flight Planning
at skyvector.com

Satellite Image

Google Maps Satellite View

 

Copyright © 2004-2014 Karl L. Swartz. All rights reserved.
The Great Circle Mapper name and logo are trademarks of the Great Circle Mapper.
All other trademarks mentioned herein belong to their respective owners.
Please see credits for attibutions and further copyright information.

  Follow gcmap on Facebook Follow gcmap on Twitter

hCard Microformat

Geo Microformat